Temp
29 27 25 25 26 28 29 30 29 29 30 30 30 30 30 27 24 24 22 21 22 23 19 18 20 20 23 26 27 26 25 25 24 24 23 23 23 23 23 23 22 23 23 23
28 26 28 29 29 29 30 29 29 30 31 29 30 30 27 24 22 23 23 23 22 21 19 18 19 19 24 24 26 25 25 24 24 23 23 23 22 22 22 22 22 22 22 22
26 28 31 30 30 30 29 30 31 31 32 29 28 29 28 26 25 24 24 25 24 23 20 18 18 21 25 25 23 25 25 24 24 23 23 22 21 21 21 21 21 21 21 21
28 30 31 31 30 30 28 31 32 33 31 29 29 27 28 26 23 24 24 24 24 22 23 21 20 20 21 24 24 26 24 24 23 22 22 21 21 20 20 20 20 21 20 20
28 31 31 31 31 31 30 32 32 33 30 29 29 26 26 27 25 23 24 24 24 23 23 22 21 20 21 24 22 25 23 23 22 21 21 20 20 19 19 19 19 19 20 20
29 31 31 31 33 33 34 34 27 26 25 26 28 27 25 26 28 27 27 25 25 24 23 22 21 22 21 22 23 23 23 22 21 21 21 20 20 19 19 19 19 19 19 19
28 30 31 32 31 32 32 26 24 26 25 25 27 27 25 24 28 28 27 26 26 24 23 22 21 22 21 21 22 22 22 21 21 21 20 20 19 19 18 18 19 19 19 20
26 26 30 33 31 31 30 26 24 27 25 25 26 28 26 25 25 27 27 26 26 25 24 23 22 22 22 22 22 22 22 21 21 20 20 19 19 19 19 19 19 18 19 19
26 27 31 32 32 32 31 29 27 26 25 24 25 26 25 26 27 27 26 26 25 23 23 22 22 22 22 22 22 22 22 21 21 20 20 20 19 19 19 19 19 19 19 19
27 27 31 33 33 31 31 30 29 23 28 27 25 26 24 24 28 25 20 21 21 21 21 23 22 22 21 22 23 22 22 22 21 20 20 20 19 20 19 19 19 19 19 19
26 26 30 31 31 29 30 30 26 24 23 25 24 24 23 23 25 23 21 21 22 22 21 20 22 22 23 23 23 22 22 21 21 20 20 20 20 20 20 19 19 19 19 19
27 24 26 28 30 32 31 29 26 24 27 23 23 24 23 24 22 22 21 22 22 22 20 19 21 23 23 23 23 23 22 22 21 21 20 20 20 20 19 19 19 19 19 19
27 24 25 27 27 29 32 29 27 23 22 24 24 24 23 22 22 22 21 22 21 22 21 20 20 22 23 23 23 23 22 22 22 21 20 20 20 20 20 19 19 19 18 18
26 23 26 28 27 29 31 31 31 26 23 25 24 24 22 21 22 20 20 19 18 19 20 19 19 21 23 23 23 23 23 23 22 21 21 21 20 20 20 19 18 18 18 18
26 27 28 27 28 31 31 30 30 29 28 28 28 26 24 22 20 21 20 19 20 21 20 18 19 21 23 23 24 23 23 23 22 21 21 21 21 20 20 19 18 18 18 18
23 27 28 29 29 30 30 30 30 31 32 29 25 26 22 20 21 20 21 20 20 20 20 19 22 22 20 21 20 21 22 22 22 22 22 22 21 20 20 18 17 17 17 16
24 24 23 26 27 28 27 30 31 30 31 28 27 26 22 21 21 20 19 20 21 21 20 20 18 16 16 17 18 19 19 21 21 21 22 22 21 20 19 18 18 17 16 16
25 23 22 23 25 26 26 29 30 30 30 27 25 23 22 21 20 20 21 20 21 21 18 17 15 14 15 16 17 18 19 20 20 21 21 21 20 19 18 18 17 16 16 15
23 22 23 24 22 25 28 30 31 30 29 27 24 22 22 21 20 19 19 21 19 17 15 14 14 14 14 15 16 17 17 18 19 20 20 21 20 17 17 16 15 15 15 14
23 21 23 22 25 24 25 28 29 29 26 26 25 23 22 21 21 20 16 16 15 14 14 13 13 13 14 14 15 16 14 15 15 16 18 19 18 16 15 14 14 13 13 12
21 21 22 21 23 24 22 22 28 27 25 25 24 23 22 21 20 17 15 14 14 13 12 12 12 11 12 13 14 13 13 12 13 14 15 16 15 15 14 14 13 13 12 12
21 20 20 21 23 23 20 22 24 20 20 22 21 20 18 17 16 15 14 13 13 13 12 11 11 10 11 11 11 10 10 11 12 12 12 12 12 12 12 13 11 11 11 10
20 19 19 20 20 19 18 18 18 18 18 19 18 19 18 17 15 14 13 12 12 12 11 10 10 10 10 10 10 9 9 10 10 10 9 9 10 9 10 9 10 9 9 9
19 18 18 19 19 17 17 18 17 17 18 18 18 17 17 15 14 13 12 12 12 11 11 10 10 9 9 9 9 9 9 10 10 9 9 9 9 8 9 8 9 9 9 8
18 19 18 18 18 18 18 17 17 17 17 17 17 16 16 15 14 13 12 11 11 11 11 10 9 9 9 9 9 9 9 9 9 8 7 8 8 8 8 8 9 9 9 9
17 18 17 17 17 17 18 17 17 17 17 17 17 16 15 15 13 13 12 11 11 11 10 10 10 10 9 9 9 9 9 10 9 8 8 8 8 9 9 8 8 8 8 9
Height
761 783 795 788 782 776 778 786 787 768 749 758 759 762 753 761 772 777 779 775 771 773 794 790 786 778 782 781 779 779 781 784 788 789 792 793 792 792 793 794 794 793 793 794
777 790 767 765 769 773 774 782 785 765 748 762 759 764 765 767 773 768 771 765 774 786 783 775 787 778 777 779 775 777 779 782 786 789 790 790 789 789 789 789 790 790 789 790
786 765 751 763 767 774 774 776 770 770 751 757 766 775 766 769 766 771 770 761 765 774 776 770 771 772 769 773 772 775 779 781 783 788 787 788 787 787 786 786 785 785 786 787
772 749 755 759 767 762 786 753 755 758 768 792 765 813 779 774 780 774 770 768 762 758 755 759 764 769 770 772 773 776 780 782 783 787 785 786 785 785 784 783 781 781 782 783
769 752 756 761 755 747 765 744 752 750 770 777 775 801 791 767 784 777 770 769 759 751 753 754 758 766 768 768 775 777 781 783 783 785 785 785 784 782 782 780 778 777 776 776
756 737 744 746 734 735 730 743 766 774 788 813 782 793 796 782 767 761 757 761 754 754 755 756 759 761 768 773 775 778 782 783 783 784 785 783 781 780 779 777 775 773 771 772
763 752 738 733 749 734 739 778 819 816 823 822 781 793 787 772 754 748 749 756 748 751 755 761 764 768 772 772 776 781 782 781 784 785 783 782 780 779 778 774 772 772 771 769
787 789 743 725 740 750 751 773 814 825 829 815 781 792 779 756 759 748 742 745 742 752 754 760 763 768 772 775 779 781 779 781 786 784 782 781 781 780 776 773 773 773 772 770
784 776 727 725 725 733 749 770 759 791 797 814 799 780 768 754 750 743 752 748 755 760 757 761 765 766 774 777 777 777 781 784 784 784 782 782 781 781 777 775 774 774 773 772
755 778 732 723 721 721 731 736 774 800 806 816 805 790 790 774 754 755 782 782 777 785 777 763 765 771 771 775 777 780 783 784 784 783 782 783 782 780 779 778 776 776 775 773
745 761 743 732 741 751 743 752 764 778 794 812 822 804 762 763 762 765 774 772 767 767 773 784 768 770 771 772 775 777 781 782 784 784 782 782 782 781 780 778 779 779 778 776
732 757 770 754 723 717 726 744 757 792 787 795 799 796 750 749 763 761 769 760 754 750 754 778 778 772 769 770 774 777 779 780 782 782 783 782 783 782 780 780 782 781 780 779
726 760 779 761 745 727 730 732 740 760 775 785 801 792 753 751 754 757 758 758 750 745 742 762 777 776 770 770 773 775 779 780 781 782 783 783 784 783 781 782 783 783 782 782
714 751 754 765 758 738 739 732 728 749 781 774 778 771 767 761 759 759 757 757 759 756 757 766 771 777 770 770 773 774 778 780 781 781 782 783 783 783 784 784 785 785 785 785
724 744 737 739 735 728 732 733 729 742 741 758 751 754 748 750 760 754 759 762 754 746 756 766 773 774 768 770 771 774 776 778 779 779 781 783 783 784 785 786 788 789 788 788
729 745 732 736 727 727 733 727 726 718 715 730 745 747 735 746 748 755 756 759 760 760 763 772 773 768 769 772 774 774 777 777 777 777 779 782 784 785 786 788 790 791 791 791
736 745 756 758 739 738 754 727 723 721 716 725 745 731 733 747 751 751 752 754 753 755 763 765 770 772 771 774 774 774 777 777 778 779 779 780 783 786 786 788 791 793 794 795
736 745 757 765 753 775 740 711 712 718 713 718 721 727 731 741 745 747 750 750 751 752 758 765 770 774 775 775 776 777 776 776 777 779 780 782 782 784 786 788 791 795 796 798
728 745 756 766 776 754 732 714 716 721 725 716 725 732 734 740 748 756 750 751 754 758 764 764 768 771 775 775 777 775 776 776 776 776 777 780 782 785 787 789 792 797 799 800
732 740 753 766 767 774 743 712 699 705 745 713 723 730 734 738 758 757 760 759 760 767 768 769 771 772 774 778 774 774 777 777 777 776 775 777 782 785 788 791 795 798 801 803
754 751 759 767 764 752 737 726 702 743 750 711 717 727 732 737 741 751 762 767 770 772 774 772 774 778 778 774 774 778 779 780 779 779 778 779 783 785 789 793 798 800 803 806
755 766 765 763 762 767 737 726 739 745 729 726 726 731 740 745 751 759 766 771 774 777 780 782 782 780 777 777 780 782 783 783 781 780 781 784 786 789 793 796 801 804 806 808
761 758 762 759 763 751 748 749 747 737 737 737 739 745 735 745 754 757 764 768 771 774 777 779 778 779 781 783 786 787 787 786 784 784 786 789 792 795 798 800 804 806 810 811
752 748 755 754 755 753 748 746 744 739 740 739 740 754 762 747 755 762 765 767 771 775 776 776 779 782 786 788 789 790 790 790 789 791 793 795 798 801 803 806 807 810 814 817
754 750 753 756 753 748 746 746 744 742 740 740 740 741 758 762 770 771 771 773 775 779 781 782 783 787 790 791 792 792 793 794 794 797 800 801 804 807 809 813 814 817 821 822
751 753 760 764 753 751 750 749 745 744 743 740 742 755 762 767 774 779 776 778 780 783 787 788 790 790 792 795 796 797 798 798 799 803 806 809 811 814 816 818 820 824 826 826
Wind_Speed
3 3 8 9 9 8 4 5 9 6 7 2 4 4 3 11 19 20 13 10 13 15 14 28 37 29 9 26 28 27 23 20 20 17 13 12 13 12 14 15 14 16 16 20
4 8 12 5 7 8 9 10 8 8 7 4 10 11 11 9 8 17 16 11 11 11 15 33 36 44 26 19 31 25 22 23 19 17 13 9 10 11 14 16 16 19 16 15
7 10 3 8 10 9 8 5 5 8 2 1 6 7 5 4 5 12 10 10 4 11 16 17 25 40 29 21 18 26 20 19 16 13 9 8 9 11 14 14 14 14 14 13
7 14 16 13 9 7 5 10 7 6 3 4 7 4 2 5 6 7 10 11 13 12 13 18 22 20 18 22 18 19 16 15 12 9 6 5 6 7 10 13 13 14 14 15
9 4 3 6 9 7 10 6 7 3 2 3 6 5 6 3 12 15 16 17 10 12 4 10 13 21 23 20 14 16 17 14 10 6 4 3 3 5 9 10 11 13 15 16
11 9 4 7 12 9 5 1 7 6 3 4 5 5 5 2 5 3 9 18 10 14 8 9 14 17 17 13 18 21 20 15 10 7 4 3 4 7 7 7 8 12 7 10
7 12 9 9 8 4 4 6 3 4 4 6 4 3 7 5 2 3 8 10 13 14 12 9 9 16 19 21 28 24 20 17 11 8 4 4 5 6 7 8 9 8 4 6
4 8 8 3 9 8 5 9 6 5 4 6 5 3 5 7 7 8 7 7 16 13 11 11 13 18 20 24 25 23 19 18 13 8 6 7 7 10 12 13 9 8 5 1
6 8 3 7 6 8 5 3 7 6 2 3 3 3 7 8 5 16 10 15 12 7 7 8 10 19 20 22 25 20 19 16 14 10 8 9 11 13 16 14 13 10 7 3
8 6 12 19 4 6 11 5 2 3 2 5 5 4 5 5 5 14 14 14 14 13 8 13 10 16 23 26 22 18 16 14 12 10 8 9 11 13 14 15 15 15 12 7
7 5 18 2 5 5 2 1 5 5 5 5 2 6 6 10 4 11 13 13 18 12 3 11 11 19 27 25 21 19 16 13 10 8 9 10 9 11 13 14 13 13 13 11
11 6 8 12 7 4 7 9 6 5 6 3 5 5 5 3 10 12 10 14 17 13 8 5 8 17 22 23 20 17 15 13 9 10 9 11 8 8 9 10 10 11 14 13
7 4 2 10 7 5 2 5 5 4 4 6 5 6 2 2 6 3 9 7 11 13 11 9 6 9 17 19 20 18 16 12 11 11 10 8 6 6 7 8 9 10 13 14
7 3 7 10 8 3 4 6 3 6 4 4 6 6 5 7 5 8 6 8 5 4 2 3 4 11 16 19 22 19 17 14 14 12 10 7 5 4 5 7 8 10 13 16
4 4 5 6 5 2 1 4 9 7 6 6 6 11 14 16 9 8 8 8 10 12 5 5 7 9 12 16 17 14 19 19 16 13 10 7 7 8 10 8 10 12 14 16
4 3 1 3 3 5 2 7 8 7 6 3 9 5 6 10 10 6 9 11 10 6 6 8 13 7 12 11 9 6 8 20 20 18 16 12 10 14 14 13 12 13 15 14
3 2 3 3 4 5 3 3 3 4 5 8 4 7 12 14 15 15 11 13 17 12 10 13 7 9 14 12 10 10 9 5 14 16 19 18 19 18 18 17 16 15 15 14
1 3 2 3 4 3 7 4 5 5 5 1 3 13 12 13 9 8 8 11 11 13 13 11 10 11 10 9 8 4 3 2 2 12 18 19 21 21 23 22 20 18 16 14
3 3 2 3 3 4 7 3 1 2 5 1 9 14 15 11 8 6 2 8 10 10 10 16 18 14 11 11 7 9 6 1 2 5 21 22 24 26 25 25 23 19 17 16
5 5 3 2 2 4 7 6 7 3 4 4 5 17 20 10 4 5 7 10 12 13 14 16 16 15 14 9 10 9 9 7 7 10 20 23 26 27 26 25 24 21 19 19
3 1 5 2 4 5 9 14 8 5 7 4 10 10 6 4 2 14 11 11 14 15 15 17 16 14 11 12 10 10 8 9 7 13 20 27 28 29 27 25 22 21 20 20
5 4 4 2 1 6 16 4 4 5 7 8 4 6 9 15 16 14 14 13 13 15 14 13 13 14 14 12 10 12 12 9 13 18 22 24 25 26 27 26 22 21 21 23
1 3 4 4 3 1 4 4 3 6 7 12 13 5 17 15 14 14 12 13 12 15 13 14 16 18 14 11 10 15 12 13 18 21 23 23 24 24 24 24 24 23 22 24
4 1 2 3 5 2 6 1 3 12 15 15 18 17 10 16 12 13 12 10 11 13 14 17 17 16 15 13 14 15 16 19 23 26 26 25 26 23 23 19 21 22 20 20
3 1 1 3 3 1 7 5 6 8 9 12 13 16 4 9 6 6 9 9 12 12 13 15 16 16 16 17 18 19 20 22 26 25 25 26 25 25 25 23 21 18 15 16
1 2 2 3 4 4 3 2 5 13 12 13 16 12 10 11 8 8 9 12 12 12 15 16 14 17 17 18 18 19 21 25 27 24 22 25 28 28 27 26 24 18 16 15
Wind_Direction
289 84 231 209 204 235 250 195 246 257 252 36 260 262 157 142 134 148 172 201 161 191 103 66 24 337 285 193 192 195 194 197 199 206 208 213 238 246 245 247 242 251 246 240
340 253 238 215 227 237 260 266 235 289 262 132 276 284 77 101 155 164 172 213 161 156 143 108 143 252 237 225 199 192 195 192 202 213 218 231 254 264 265 267 258 255 251 231
195 240 348 217 263 256 258 211 250 239 352 311 18 323 110 158 208 176 203 213 201 204 146 147 164 227 196 211 219 186 186 184 193 213 225 243 255 265 273 278 276 268 271 263
244 258 250 259 246 218 241 252 248 289 333 229 135 259 82 152 172 207 183 215 236 224 166 160 174 225 226 207 213 197 190 187 187 209 219 237 265 281 296 298 289 282 270 258
241 288 278 256 246 192 227 233 239 198 147 62 324 65 265 180 168 209 203 215 233 229 188 165 192 211 223 203 230 189 169 164 167 172 174 203 250 284 297 295 291 293 276 256
254 281 268 260 284 251 234 133 41 36 73 13 255 137 285 169 286 197 159 192 196 205 193 205 208 217 218 204 190 159 157 154 156 150 125 46 356 336 320 308 318 320 269 252
312 282 282 264 290 299 110 66 355 350 11 230 308 91 236 269 19 161 224 166 161 162 171 190 195 205 196 153 145 150 152 148 153 146 110 48 26 23 353 8 356 352 293 249
200 313 231 243 204 197 193 151 155 198 199 255 318 258 250 268 238 284 146 164 132 150 162 150 151 136 134 136 145 153 152 153 165 149 112 72 67 60 49 41 25 0 341 359
181 258 256 306 310 161 234 177 191 135 85 55 247 278 303 319 323 59 48 142 139 150 128 129 121 128 142 150 149 149 154 157 159 152 119 97 88 70 62 66 64 45 26 2
221 277 272 277 329 266 171 164 84 17 163 268 293 253 222 242 181 92 70 317 56 7 350 139 135 140 149 154 154 152 155 153 154 141 115 107 90 78 68 63 59 55 49 49
168 158 268 49 193 225 63 171 68 117 143 173 224 269 224 211 41 94 105 145 144 153 273 314 143 148 150 153 154 150 155 148 151 150 126 118 94 92 73 62 58 54 53 59
203 171 232 236 246 210 191 214 156 131 254 224 151 257 272 137 150 120 135 142 155 165 119 8 256 161 154 156 162 162 159 152 158 158 147 131 107 94 78 65 65 60 52 59
187 204 265 303 344 359 190 189 167 115 83 205 137 252 63 3 65 70 158 130 157 170 152 136 326 222 160 159 170 169 169 162 164 170 167 162 152 106 81 78 71 65 68 76
98 120 175 223 214 163 340 324 235 143 122 203 204 163 215 225 138 132 136 106 96 1 203 258 341 248 169 163 171 172 176 177 173 172 173 177 167 144 114 94 90 86 83 84
92 175 198 179 200 197 206 308 307 213 200 154 225 191 193 193 165 172 167 146 173 191 249 217 284 229 174 176 182 182 182 186 179 169 162 150 138 131 125 109 107 105 101 93
1 271 253 307 355 29 336 324 299 283 281 84 129 238 183 125 134 154 180 159 189 160 213 246 235 98 76 90 97 110 208 198 189 176 161 151 154 133 112 113 119 120 115 111
57 87 63 281 338 15 350 265 283 309 297 133 174 203 155 137 158 185 184 184 184 193 193 139 91 82 91 87 74 73 56 178 203 200 169 166 154 136 130 129 129 128 123 120
83 97 107 203 41 227 239 253 258 249 319 280 113 137 138 146 157 166 209 184 174 158 132 111 106 96 82 71 61 52 43 81 113 201 186 170 155 148 140 138 135 130 129 115
121 117 80 142 181 284 330 306 275 154 279 119 123 110 122 124 106 53 53 162 141 114 111 113 113 103 82 60 53 52 65 128 186 185 173 168 154 147 144 139 135 130 127 116
95 100 128 124 154 208 228 290 252 145 257 161 169 147 151 160 123 164 110 109 97 97 97 101 97 91 82 70 69 67 61 72 73 138 154 159 156 150 144 140 135 130 123 112
339 334 186 200 212 285 345 325 326 146 247 189 162 151 141 98 101 120 116 89 88 92 91 90 87 84 80 76 78 82 86 84 109 139 141 145 151 151 147 142 139 133 123 118
205 169 204 127 192 270 352 6 61 280 343 358 73 121 112 113 109 117 117 117 110 98 88 89 86 74 71 76 96 100 90 107 128 132 132 134 136 138 141 140 132 128 127 122
7 177 174 159 164 184 306 129 305 58 59 39 46 20 123 116 117 115 112 101 92 96 100 96 88 78 75 82 101 98 104 121 120 117 106 113 122 126 125 127 127 124 128 125
333 320 107 111 12 34 47 230 67 83 82 78 65 36 324 108 115 119 118 117 113 112 107 104 95 87 81 95 104 108 114 116 114 103 103 105 110 111 114 115 121 125 125 126
205 34 359 56 40 243 46 42 62 105 109 111 103 112 174 105 70 92 95 91 93 97 102 107 107 103 102 109 107 117 118 124 115 113 111 112 112 112 110 106 104 111 119 126
45 169 127 184 251 141 246 12 98 89 86 91 100 94 82 89 94 92 91 103 112 110 113 110 112 115 116 117 117 123 128 126 120 107 107 113 115 116 114 112 105 102 103 104